| time (UTC) | temp C | wind direction | speed KPH | gust KPH | rain 1hr cm | rain 24hr cm | rain mn cm | humidity % | barometer mb |
| 20260503022033 | -17 | 131 | 0.0 | 0.0 | 0.00 | 0.00 | 0.00 | 87 | 1002.7 |
| 20260503021533 | -17 | 131 | 0.0 | 0.0 | 0.00 | 0.00 | 0.00 | 86 | 1003.0 |
| 20260503021032 | -17 | 131 | 0.0 | 0.0 | 0.00 | 0.00 | 0.00 | 86 | 1002.8 |
| 20260503020532 | -17 | 131 | 0.0 | 0.0 | 0.00 | 0.00 | 0.00 | 85 | 1003.0 |
| 20260503020032 | -17 | 131 | 0.0 | 0.0 | 0.00 | 0.00 | 0.00 | 85 | 1002.8 |
| 20260503015531 | -17 | 131 | 0.0 | 0.0 | 0.00 | 0.00 | 0.00 | 84 | 1002.9 |
| 20260503015031 | -17 | 131 | 0.0 | 0.0 | 0.00 | 0.00 | 0.00 | 84 | 1002.8 |
| 20260503014530 | -17 | 131 | 0.0 | 0.0 | 0.00 | 0.00 | 0.00 | 83 | 1002.5 |
| 20260503014030 | -17 | 131 | 0.0 | 0.0 | 0.00 | 0.00 | 0.00 | 83 | 1002.4 |
| 20260503013530 | -17 | 131 | 0.0 | 0.0 | 0.00 | 0.00 | 0.00 | 82 | 1002.5 |
| 20260503013029 | -17 | 131 | 0.0 | 0.0 | 0.00 | 0.00 | 0.00 | 82 | 1002.5 |
| 20260503012529 | -17 | 131 | 0.0 | 0.0 | 0.00 | 0.00 | 0.00 | 81 | 1002.5 |
| 20260503012029 | -17 | 131 | 0.0 | 0.0 | 0.00 | 0.00 | 0.00 | 81 | 1002.4 |
| 20260503011528 | -17 | 131 | 0.0 | 0.0 | 0.00 | 0.00 | 0.00 | 80 | 1002.3 |
| 20260503011028 | -17 | 131 | 0.0 | 0.0 | 0.00 | 0.00 | 0.00 | 79 | 1002.3 |
| 20260503010528 | -17 | 131 | 0.0 | 0.0 | 0.00 | 0.00 | 0.00 | 78 | 1002.1 |
| 20260503010027 | -17 | 131 | 0.0 | 0.0 | 0.00 | 0.00 | 0.00 | 77 | 1002.0 |
| 20260503005527 | -17 | 131 | 0.0 | 0.0 | 0.00 | 0.00 | 0.00 | 76 | 1002.0 |
| 20260503005027 | -17 | 131 | 0.0 | 0.0 | 0.00 | 0.00 | 0.00 | 76 | 1002.1 |
| 20260503004526 | -17 | 130 | 0.0 | 0.0 | 0.00 | 0.00 | 0.00 | 76 | 1002.1 |
| 20260503004026 | -17 | 130 | 0.0 | 0.0 | 0.00 | 0.00 | 0.00 | 75 | 1001.9 |
| 20260503003526 | -17 | 130 | 0.0 | 0.0 | 0.00 | 0.00 | 0.00 | 74 | 1001.7 |
| 20260503003025 | -17 | 130 | 0.0 | 0.0 | 0.00 | 0.00 | 0.00 | 73 | 1001.7 |
| 20260503002525 | -17 | 130 | 0.0 | 0.0 | 0.00 | 0.00 | 0.00 | 73 | 1001.9 |
| 20260503002025 | -17 | 130 | 0.0 | 0.0 | 0.00 | 0.00 | 0.00 | 72 | 1001.6 |
| 20260503001524 | -17 | 130 | 0.0 | 0.0 | 0.00 | 0.00 | 0.00 | 71 | 1001.4 |
| 20260503001024 | -17 | 130 | 0.0 | 0.0 | 0.00 | 0.00 | 0.00 | 70 | 1001.3 |
| 20260503000524 | -17 | 130 | 0.0 | 0.0 | 0.00 | 0.00 | 0.00 | 69 | 1001.3 |
| 20260503000023 | -17 | 130 | 0.0 | 0.0 | 0.00 | 0.00 | 0.00 | 69 | 1001.3 |
| 20260502235523 | -17 | 130 | 0.0 | 0.0 | 0.00 | 0.00 | 0.00 | 67 | 1000.9 |
| 20260502235023 | -17 | 130 | 0.0 | 0.0 | 0.00 | 0.00 | 0.00 | 66 | 1001.0 |
| 20260502234523 | -17 | 130 | 0.0 | 0.0 | 0.00 | 0.00 | 0.00 | 65 | 1001.0 |
| 20260502234017 | -17 | 130 | 0.0 | 0.0 | 0.00 | 0.00 | 0.00 | 64 | 1000.9 |
| 20260502233517 | -17 | 130 | 0.0 | 0.0 | 0.00 | 0.00 | 0.00 | 63 | 1000.7 |
| 20260502233017 | -17 | 130 | 0.0 | 0.0 | 0.00 | 0.00 | 0.00 | 61 | 1000.7 |
| 20260502232516 | -17 | 130 | 0.0 | 0.0 | 0.00 | 0.00 | 0.00 | 59 | 1000.6 |
| 20260502232016 | -17 | 130 | 0.0 | 0.0 | 0.00 | 0.00 | 0.00 | 59 | 1000.8 |
| 20260502231516 | -17 | 140 | 0.0 | 0.0 | 0.00 | 0.00 | 0.00 | 60 | 1000.7 |
| 20260502231015 | -17 | 142 | 0.0 | 0.0 | 0.00 | 0.00 | 0.00 | 62 | 1000.6 |
| 20260502230515 | -17 | 101 | 0.0 | 0.0 | 0.00 | 0.00 | 0.00 | 60 | 1000.8 |
| 20260502230015 | -17 | 113 | 1.6 | 1.6 | 0.00 | 0.00 | 0.00 | 61 | 1000.9 |
| 20260502225515 | -17 | 185 | 0.0 | 0.0 | 0.00 | 0.00 | 0.00 | 62 | 1000.6 |
| 20260502225014 | -17 | 89 | 0.0 | 1.6 | 0.00 | 0.00 | 0.00 | 64 | 1000.5 |
| 20260502224514 | -17 | 92 | 0.0 | 0.0 | 0.00 | 0.00 | 0.00 | 61 | 1000.5 |
| 20260502224014 | -17 | 92 | 0.0 | 0.0 | 0.00 | 0.00 | 0.00 | 63 | 1000.5 |
| 20260502223513 | -17 | 92 | 0.0 | 0.0 | 0.00 | 0.00 | 0.00 | 62 | 1000.5 |
| 20260502223013 | -17 | 92 | 0.0 | 0.0 | 0.00 | 0.00 | 0.00 | 60 | 1000.7 |
| 20260502222513 | -17 | 94 | 0.0 | 0.0 | 0.00 | 0.00 | 0.00 | 60 | 1000.5 |
| 20260502222012 | -17 | 94 | 0.0 | 0.0 | 0.00 | 0.00 | 0.00 | 61 | 1000.5 |
| 20260502221512 | -17 | 94 | 0.0 | 1.6 | 0.00 | 0.00 | 0.00 | 61 | 1000.7 |
| 20260502221011 | -17 | 94 | 0.0 | 0.0 | 0.00 | 0.00 | 0.00 | 60 | 1000.5 |
| 20260502220511 | -17 | 170 | 0.0 | 0.0 | 0.00 | 0.00 | 0.00 | 60 | 1000.7 |
| 20260502220011 | -17 | 189 | 0.0 | 0.0 | 0.00 | 0.00 | 0.00 | 60 | 1000.3 |
| 20260502215510 | -17 | 177 | 0.0 | 0.0 | 0.00 | 0.00 | 0.00 | 60 | 1000.5 |
| 20260502215010 | -17 | 110 | 0.0 | 0.0 | 0.00 | 0.00 | 0.00 | 59 | 1000.4 |
| 20260502214510 | -17 | 115 | 0.0 | 1.6 | 0.00 | 0.00 | 0.00 | 60 | 1000.3 |
| 20260502214009 | -17 | 353 | 0.0 | 0.0 | 0.00 | 0.00 | 0.00 | 60 | 1000.3 |
| 20260502213509 | -17 | 345 | 1.6 | 1.6 | 0.00 | 0.00 | 0.00 | 61 | 1000.2 |
| 20260502213009 | -17 | 321 | 0.0 | 1.6 | 0.00 | 0.00 | 0.00 | 62 | 1000.3 |
| 20260502212508 | -17 | 203 | 0.0 | 0.0 | 0.00 | 0.00 | 0.00 | 62 | 1000.2 |
| 20260502212008 | -17 | 160 | 0.0 | 0.0 | 0.00 | 0.00 | 0.00 | 62 | 1000.3 |
| 20260502211508 | -17 | 23 | 0.0 | 1.6 | 0.00 | 0.00 | 0.00 | 63 | 1000.3 |
| 20260502211008 | -17 | 109 | 0.0 | 0.0 | 0.00 | 0.00 | 0.00 | 65 | 1000.3 |
| 20260502210507 | -17 | 127 | 0.0 | 0.0 | 0.00 | 0.00 | 0.00 | 66 | 1000.3 |
| 20260502210007 | -17 | 104 | 0.0 | 0.0 | 0.00 | 0.00 | 0.00 | 67 | 1000.3 |
| 20260502205507 | -17 | 103 | 0.0 | 0.0 | 0.00 | 0.00 | 0.00 | 68 | 1000.2 |
| 20260502205006 | -17 | 103 | 0.0 | 0.0 | 0.00 | 0.00 | 0.00 | 68 | 1000.3 |
| 20260502204506 | -17 | 103 | 0.0 | 1.6 | 0.00 | 0.00 | 0.00 | 67 | 1000.5 |
| 20260502204006 | -17 | 104 | 0.0 | 0.0 | 0.00 | 0.00 | 0.00 | 69 | 1000.1 |
| 20260502203505 | -17 | 99 | 1.6 | 1.6 | 0.00 | 0.00 | 0.00 | 67 | 1000.3 |
| 20260502203005 | -17 | 9 | 0.0 | 0.0 | 0.00 | 0.00 | 0.00 | 67 | 1000.3 |
| 20260502202500 | -17 | 9 | 0.0 | 0.0 | 0.00 | 0.00 | 0.00 | 65 | 1000.3 |
| 20260502201959 | -17 | 115 | 0.0 | 0.0 | 0.00 | 0.00 | 0.00 | 70 | 1000.4 |
| 20260502201459 | -17 | 132 | 0.0 | 0.0 | 0.00 | 0.00 | 0.00 | 70 | 1000.4 |
| 20260502200959 | -17 | 178 | 0.0 | 0.0 | 0.00 | 0.00 | 0.00 | 68 | 1000.4 |
| 20260502200458 | -17 | 172 | 0.0 | 0.0 | 0.00 | 0.00 | 0.00 | 70 | 1000.3 |
| 20260502195958 | -17 | 194 | 1.6 | 3.2 | 0.00 | 0.00 | 0.00 | 69 | 1000.1 |
| 20260502195458 | -17 | 153 | 0.0 | 0.0 | 0.00 | 0.00 | 0.00 | 70 | 1000.3 |
| 20260502194957 | -17 | 153 | 0.0 | 0.0 | 0.00 | 0.00 | 0.00 | 70 | 1000.6 |
| 20260502194457 | -17 | 126 | 0.0 | 0.0 | 0.00 | 0.00 | 0.00 | 70 | 1000.5 |
| 20260502193957 | -17 | 131 | 0.0 | 0.0 | 0.00 | 0.00 | 0.00 | 70 | 1000.5 |
| 20260502193457 | -17 | 196 | 0.0 | 0.0 | 0.00 | 0.00 | 0.00 | 67 | 1000.4 |
| 20260502192956 | -17 | 147 | 0.0 | 0.0 | 0.00 | 0.00 | 0.00 | 68 | 1000.5 |
| 20260502192456 | -17 | 117 | 0.0 | 0.0 | 0.00 | 0.00 | 0.00 | 67 | 1000.8 |
| 20260502191955 | -17 | 191 | 1.6 | 1.6 | 0.00 | 0.00 | 0.00 | 68 | 1000.7 |
| 20260502191455 | -17 | 203 | 0.0 | 0.0 | 0.00 | 0.00 | 0.00 | 68 | 1001.0 |
| 20260502190955 | -17 | 80 | 0.0 | 0.0 | 0.00 | 0.00 | 0.00 | 70 | 1000.9 |
| 20260502190454 | -17 | 72 | 3.2 | 3.2 | 0.00 | 0.00 | 0.00 | 71 | 1000.7 |
| 20260502185954 | -17 | 97 | 0.0 | 1.6 | 0.00 | 0.00 | 0.00 | 71 | 1000.8 |
| 20260502185453 | -17 | 101 | 0.0 | 0.0 | 0.00 | 0.00 | 0.00 | 71 | 1000.9 |
| 20260502184953 | -17 | 101 | 0.0 | 0.0 | 0.00 | 0.00 | 0.00 | 73 | 1000.9 |
| 20260502184453 | -17 | 102 | 0.0 | 0.0 | 0.00 | 0.00 | 0.00 | 72 | 1000.9 |
| 20260502183952 | -17 | 108 | 0.0 | 0.0 | 0.00 | 0.00 | 0.00 | 71 | 1001.0 |
| 20260502183452 | -17 | 142 | 0.0 | 0.0 | 0.00 | 0.00 | 0.00 | 72 | 1001.1 |
| 20260502182952 | -17 | 154 | 0.0 | 0.0 | 0.00 | 0.00 | 0.00 | 71 | 1001.1 |
| 20260502182451 | -17 | 112 | 1.6 | 1.6 | 0.00 | 0.00 | 0.00 | 73 | 1001.1 |
| 20260502181951 | -17 | 121 | 0.0 | 0.0 | 0.00 | 0.00 | 0.00 | 72 | 1001.0 |
| 20260502181450 | -17 | 106 | 0.0 | 0.0 | 0.00 | 0.00 | 0.00 | 73 | 1001.4 |
| 20260502180949 | -17 | 82 | 0.0 | 1.6 | 0.00 | 0.00 | 0.00 | 75 | 1001.3 |
| 20260502170444 | -17 | 103 | 1.6 | 1.6 | 0.00 | 0.00 | 0.00 | 74 | 1001.7 |
| 20260502163943 | -17 | 172 | 0.0 | 1.6 | 0.00 | 0.00 | 0.00 | 76 | 1001.9 |
| 20260502163442 | -17 | 118 | 0.0 | 0.0 | 0.00 | 0.00 | 0.00 | 77 | 1002.1 |
| 20260502162942 | -17 | 133 | 0.0 | 0.0 | 0.00 | 0.00 | 0.00 | 77 | 1002.3 |
| 20260502162442 | -17 | 99 | 0.0 | 1.6 | 0.00 | 0.00 | 0.00 | 76 | 1002.7 |
| 20260502161942 | -17 | 127 | 0.0 | 0.0 | 0.00 | 0.00 | 0.00 | 78 | 1002.5 |
| 20260502161441 | -17 | 201 | 0.0 | 1.6 | 0.00 | 0.00 | 0.00 | 77 | 1002.6 |
| 20260502160941 | -17 | 112 | 1.6 | 1.6 | 0.00 | 0.00 | 0.00 | 78 | 1002.7 |
| 20260502160440 | -17 | 89 | 3.2 | 3.2 | 0.00 | 0.00 | 0.00 | 77 | 1003.1 |
| 20260502151923 | -17 | 104 | 0.0 | 1.6 | 0.00 | 0.00 | 0.00 | 80 | 1002.3 |
| 20260502151422 | -17 | 123 | 0.0 | 0.0 | 0.00 | 0.00 | 0.00 | 79 | 1002.3 |
| 20260502150922 | -17 | 119 | 0.0 | 0.0 | 0.00 | 0.00 | 0.00 | 80 | 1002.5 |
| 20260502150421 | -17 | 126 | 0.0 | 0.0 | 0.00 | 0.00 | 0.00 | 80 | 1002.4 |
| 20260502130358 | -17 | 127 | 0.0 | 0.0 | 0.00 | 0.00 | 0.00 | 73 | 1001.8 |
| 20260502123354 | -17 | 46 | 1.6 | 1.6 | 0.00 | 0.00 | 0.00 | 73 | 1001.7 |
| 20260502122854 | -17 | 193 | 0.0 | 0.0 | 0.00 | 0.00 | 0.00 | 75 | 1001.9 |
| 20260502122353 | -17 | 184 | 0.0 | 0.0 | 0.00 | 0.00 | 0.00 | 77 | 1001.8 |
| 20260502121853 | -17 | 306 | 1.6 | 1.6 | 0.00 | 0.00 | 0.00 | 77 | 1001.5 |
| 20260502121353 | -17 | 135 | 0.0 | 0.0 | 0.00 | 0.00 | 0.00 | 77 | 1001.3 |
| 20260502120852 | -17 | 186 | 0.0 | 0.0 | 0.00 | 0.00 | 0.00 | 81 | 1001.4 |
| 20260502120352 | -17 | 155 | 0.0 | 0.0 | 0.00 | 0.00 | 0.00 | 80 | 1001.3 |
| 20260502115851 | -17 | 128 | 0.0 | 0.0 | 0.00 | 0.00 | 0.00 | 79 | 1001.4 |
| 20260502115351 | -17 | 172 | 0.0 | 0.0 | 0.00 | 0.00 | 0.00 | 83 | 1001.5 |
| 20260502114851 | -17 | 172 | 0.0 | 0.0 | 0.00 | 0.00 | 0.00 | 84 | 1001.3 |
| 20260502114351 | -17 | 172 | 0.0 | 0.0 | 0.00 | 0.00 | 0.00 | 83 | 1001.5 |
| 20260502113850 | -17 | 172 | 0.0 | 0.0 | 0.00 | 0.00 | 0.00 | 80 | 1001.6 |
| 20260502113349 | -17 | 162 | 0.0 | 0.0 | 0.00 | 0.00 | 0.00 | 79 | 1001.3 |
| 20260502112849 | -17 | 220 | 0.0 | 0.0 | 0.00 | 0.00 | 0.00 | 82 | 1001.3 |
| 20260502112348 | -17 | 207 | 0.0 | 0.0 | 0.00 | 0.00 | 0.00 | 83 | 1001.4 |
| 20260502111848 | -17 | 266 | 1.6 | 3.2 | 0.00 | 0.00 | 0.00 | 84 | 1001.3 |
| 20260502111348 | -17 | 201 | 0.0 | 0.0 | 0.00 | 0.00 | 0.00 | 82 | 1001.6 |
| 20260502110848 | -17 | 188 | 0.0 | 0.0 | 0.00 | 0.00 | 0.00 | 83 | 1001.5 |
| 20260502110347 | -17 | 195 | 0.0 | 0.0 | 0.00 | 0.00 | 0.00 | 84 | 1001.5 |
| 20260502105847 | -17 | 195 | 0.0 | 0.0 | 0.00 | 0.00 | 0.00 | 83 | 1001.7 |
| 20260502105347 | -17 | 132 | 0.0 | 0.0 | 0.00 | 0.00 | 0.00 | 84 | 1001.5 |
| 20260502104846 | -17 | 179 | 0.0 | 0.0 | 0.00 | 0.00 | 0.00 | 84 | 1001.7 |
| 20260502104346 | -17 | 125 | 0.0 | 0.0 | 0.00 | 0.00 | 0.00 | 83 | 1001.7 |
| 20260502103845 | -17 | 337 | 1.6 | 1.6 | 0.00 | 0.00 | 0.00 | 81 | 1001.8 |
| 20260502103345 | -17 | 84 | 3.2 | 3.2 | 0.00 | 0.00 | 0.00 | 82 | 1001.5 |
| 20260502102840 | -17 | 116 | 0.0 | 0.0 | 0.00 | 0.00 | 0.00 | 83 | 1001.5 |
| 20260502102339 | -17 | 157 | 0.0 | 0.0 | 0.00 | 0.00 | 0.00 | 84 | 1001.6 |
| 20260502101839 | -17 | 182 | 0.0 | 0.0 | 0.00 | 0.00 | 0.00 | 84 | 1001.7 |
| 20260502101339 | -17 | 27 | 0.0 | 1.6 | 0.00 | 0.00 | 0.00 | 84 | 1001.7 |
| 20260502100839 | -17 | 124 | 0.0 | 0.0 | 0.00 | 0.00 | 0.00 | 86 | 1001.9 |
| 20260502100338 | -17 | 124 | 0.0 | 0.0 | 0.00 | 0.00 | 0.00 | 85 | 1001.7 |
| 20260502091320 | -17 | 135 | 0.0 | 0.0 | 0.00 | 0.00 | 0.00 | 87 | 1001.9 |
| 20260502090820 | -17 | 135 | 0.0 | 0.0 | 0.00 | 0.00 | 0.00 | 87 | 1001.5 |
| 20260502090320 | -17 | 135 | 0.0 | 0.0 | 0.00 | 0.00 | 0.00 | 86 | 1001.5 |
| 20260502071305 | -17 | 174 | 0.0 | 0.0 | 0.00 | 0.00 | 0.00 | 87 | 1000.8 |
| 20260502070805 | -17 | 174 | 0.0 | 0.0 | 0.00 | 0.00 | 0.00 | 87 | 1000.7 |
| 20260502070305 | -17 | 174 | 0.0 | 0.0 | 0.00 | 0.00 | 0.00 | 87 | 1000.9 |
| 20260502065805 | -17 | 174 | 0.0 | 0.0 | 0.00 | 0.00 | 0.00 | 88 | 1000.8 |
| 20260502065306 | -17 | 174 | 0.0 | 0.0 | 0.00 | 0.00 | 0.00 | 88 | 1000.5 |
| 20260502064804 | -17 | 174 | 0.0 | 0.0 | 0.00 | 0.00 | 0.00 | 88 | 1000.8 |
| 20260502064304 | -17 | 174 | 0.0 | 0.0 | 0.00 | 0.00 | 0.00 | 88 | 1001.0 |
| 20260502063803 | -17 | 174 | 0.0 | 0.0 | 0.00 | 0.00 | 0.00 | 88 | 1000.9 |
| 20260502063303 | -17 | 174 | 0.0 | 0.0 | 0.00 | 0.00 | 0.00 | 88 | 1001.0 |
| 20260502062803 | -17 | 174 | 0.0 | 0.0 | 0.00 | 0.00 | 0.00 | 88 | 1001.0 |
| 20260502062306 | -17 | 174 | 0.0 | 0.0 | 0.00 | 0.00 | 0.00 | 88 | 1000.9 |
| 20260502061802 | -17 | 174 | 0.0 | 0.0 | 0.00 | 0.00 | 0.00 | 88 | 1000.9 |
| 20260502061302 | -17 | 174 | 0.0 | 0.0 | 0.00 | 0.00 | 0.00 | 88 | 1001.1 |
| 20260502060802 | -17 | 174 | 0.0 | 0.0 | 0.00 | 0.00 | 0.00 | 88 | 1001.0 |
| 20260502060301 | -17 | 174 | 0.0 | 0.0 | 0.00 | 0.00 | 0.00 | 88 | 1001.1 |
| 20260502055801 | -17 | 174 | 0.0 | 0.0 | 0.00 | 0.00 | 0.00 | 88 | 1001.0 |
| 20260502055301 | -17 | 175 | 0.0 | 0.0 | 0.00 | 0.00 | 0.00 | 89 | 1000.9 |
| 20260502054800 | -17 | 175 | 0.0 | 0.0 | 0.00 | 0.00 | 0.00 | 88 | 1001.1 |
| 20260502054300 | -17 | 175 | 0.0 | 0.0 | 0.00 | 0.00 | 0.00 | 89 | 1001.1 |
| 20260502053800 | -17 | 175 | 0.0 | 0.0 | 0.00 | 0.00 | 0.00 | 89 | 1001.2 |
| 20260502053300 | -17 | 175 | 0.0 | 0.0 | 0.00 | 0.00 | 0.00 | 89 | 1001.4 |
| 20260502052759 | -17 | 175 | 0.0 | 0.0 | 0.00 | 0.00 | 0.00 | 89 | 1001.2 |
| 20260502052259 | -17 | 175 | 0.0 | 0.0 | 0.00 | 0.00 | 0.00 | 90 | 1001.4 |
| 20260502051759 | -17 | 175 | 0.0 | 0.0 | 0.00 | 0.00 | 0.00 | 89 | 1001.6 |
| 20260502051258 | -17 | 175 | 0.0 | 0.0 | 0.00 | 0.00 | 0.00 | 89 | 1001.6 |
| 20260502050758 | -17 | 175 | 0.0 | 0.0 | 0.00 | 0.00 | 0.00 | 89 | 1001.4 |
| 20260502050258 | -17 | 175 | 0.0 | 0.0 | 0.00 | 0.00 | 0.00 | 89 | 1001.8 |
| 20260502045758 | -17 | 175 | 0.0 | 0.0 | 0.00 | 0.00 | 0.00 | 89 | 1001.6 |
| 20260502045257 | -17 | 175 | 0.0 | 0.0 | 0.00 | 0.00 | 0.00 | 89 | 1001.7 |
| 20260502044757 | -17 | 175 | 0.0 | 0.0 | 0.00 | 0.00 | 0.00 | 89 | 1001.7 |
| 20260502044257 | -17 | 175 | 0.0 | 0.0 | 0.00 | 0.00 | 0.00 | 88 | 1001.6 |
| 20260502043756 | -17 | 175 | 0.0 | 0.0 | 0.00 | 0.00 | 0.00 | 88 | 1001.7 |
| 20260502043256 | -17 | 175 | 0.0 | 0.0 | 0.00 | 0.00 | 0.00 | 88 | 1001.9 |
| 20260502042755 | -17 | 175 | 0.0 | 0.0 | 0.00 | 0.00 | 0.00 | 88 | 1001.6 |
| 20260502042254 | -17 | 175 | 0.0 | 0.0 | 0.00 | 0.00 | 0.00 | 88 | 1001.8 |
| 20260502041754 | -17 | 175 | 0.0 | 0.0 | 0.00 | 0.00 | 0.00 | 88 | 1001.8 |
| 20260502041254 | -17 | 175 | 0.0 | 0.0 | 0.00 | 0.00 | 0.00 | 87 | 1002.0 |
| 20260502040754 | -17 | 175 | 0.0 | 0.0 | 0.00 | 0.00 | 0.00 | 87 | 1001.9 |
| 20260502040253 | -17 | 175 | 0.0 | 0.0 | 0.00 | 0.00 | 0.00 | 87 | 1002.2 |
| 20260502035752 | -17 | 175 | 0.0 | 0.0 | 0.00 | 0.00 | 0.00 | 87 | 1002.1 |
| 20260502035252 | -17 | 175 | 0.0 | 0.0 | 0.00 | 0.00 | 0.00 | 87 | 1002.0 |
| 20260502034751 | -17 | 175 | 0.0 | 0.0 | 0.00 | 0.00 | 0.00 | 87 | 1002.0 |
| 20260502034251 | -17 | 175 | 0.0 | 0.0 | 0.00 | 0.00 | 0.00 | 86 | 1002.2 |
| 20260502033751 | -17 | 175 | 0.0 | 0.0 | 0.00 | 0.00 | 0.00 | 86 | 1002.1 |
| 20260502033250 | -17 | 175 | 0.0 | 0.0 | 0.00 | 0.00 | 0.00 | 86 | 1001.8 |
| 20260502032750 | -17 | 175 | 0.0 | 0.0 | 0.00 | 0.00 | 0.00 | 86 | 1002.1 |
| 20260502032249 | -17 | 175 | 0.0 | 0.0 | 0.00 | 0.00 | 0.00 | 86 | 1002.0 |
| 20260502031749 | -17 | 175 | 0.0 | 0.0 | 0.00 | 0.00 | 0.00 | 86 | 1002.0 |
| 20260502031248 | -17 | 175 | 0.0 | 0.0 | 0.00 | 0.00 | 0.00 | 86 | 1002.1 |
| 20260502030748 | -17 | 175 | 0.0 | 0.0 | 0.00 | 0.00 | 0.00 | 86 | 1001.9 |
| 20260502030248 | -17 | 175 | 0.0 | 0.0 | 0.00 | 0.00 | 0.00 | 86 | 1002.3 |
| 20260502025747 | -17 | 175 | 0.0 | 0.0 | 0.00 | 0.00 | 0.00 | 85 | 1002.1 |
| 20260502025247 | -17 | 175 | 0.0 | 0.0 | 0.00 | 0.00 | 0.00 | 85 | 1002.3 |
| 20260502024746 | -17 | 175 | 0.0 | 0.0 | 0.00 | 0.00 | 0.00 | 85 | 1002.3 |
| 20260502024246 | -17 | 175 | 0.0 | 0.0 | 0.00 | 0.00 | 0.00 | 85 | 1002.2 |
| 20260502023745 | -17 | 175 | 0.0 | 0.0 | 0.00 | 0.00 | 0.00 | 84 | 1002.1 |
| 20260502023245 | -17 | 175 | 0.0 | 0.0 | 0.00 | 0.00 | 0.00 | 83 | 1002.2 |
| 20260502022745 | -17 | 175 | 0.0 | 0.0 | 0.00 | 0.00 | 0.00 | 83 | 1002.3 |